IRIDIUM 106 1 41917U 17003A 26121.00173908 .00000061 00000+0 14767-4 0 9998 2 41917 86.3928 108.2856 0002585 82.4673 277.6816 14.34217939486446 IRIDIUM 103 1 41918U 17003B 26121.05882213 .00000021 00000+0 39069-6 0 9990 2 41918 86.3927 108.1615 0002362 95.4477 264.6988 14.34217503486473 IRIDIUM 109 1 41919U 17003C 26121.06516444 .00000016 00000+0 -14449-5 0 9991 2 41919 86.3932 108.2178 0002186 90.0736 270.0710 14.34217394486447 IRIDIUM 102 1 41920U 17003D 26121.24275710 .00000005 00000+0 -52494-5 0 9991 2 41920 86.3928 108.0679 0002256 86.9895 273.1559 14.34217603486556 IRIDIUM 105 1 41921U 17003E 26121.27166466 .00000120 00000+0 35658-4 0 9991 2 41921 86.3948 76.4821 0002318 87.5552 272.5910 14.34396800488410 IRIDIUM 104 1 41922U 17003F 26121.25544166 .00000028 00000+0 31092-5 0 9993 2 41922 86.3929 108.1044 0002236 95.6664 264.4787 14.34217645486546 IRIDIUM 114 1 41923U 17003G 26120.98271079 .00000042 00000+0 78346-5 0 9992 2 41923 86.3928 108.2020 0002278 93.2301 266.9155 14.34217931486486 IRIDIUM 108 1 41924U 17003H 26121.29007537 .00000001 00000+0 -68749-5 0 9996 2 41924 86.3943 76.3673 0002084 82.6088 277.5344 14.34217320488383 IRIDIUM 112 1 41925U 17003J 26120.97002573 .00000010 00000+0 -34319-5 0 9992 2 41925 86.3924 108.0515 0002204 91.7072 268.4376 14.34217714486502 IRIDIUM 111 1 41926U 17003K 26121.23641247 .00000135 00000+0 41282-4 0 9993 2 41926 86.3926 108.0095 0002332 90.1532 269.9932 14.34218996486523 IRIDIUM 113 1 42803U 17039A 26121.14661062 -.00000014 00000+0 -12046-4 0 9998 2 42803 86.3982 341.8486 0001941 92.6653 267.4765 14.34217415464446 IRIDIUM 123 1 42804U 17039B 26121.25785865 .00000071 00000+0 18375-4 0 9991 2 42804 86.4015 13.2502 0002344 85.8949 274.2515 14.34217725463222 IRIDIUM 120 1 42805U 17039C 26121.14026811 .00000022 00000+0 64279-6 0 9991 2 42805 86.3971 341.6399 0002086 82.7200 277.4233 14.34217559464435 IRIDIUM 115 1 42806U 17039D 26121.11226556 .00000374 00000+0 10523-3 0 9997 2 42806 86.4510 341.7743 0002469 85.4281 274.7202 14.43279025467473 IRIDIUM 118 1 42807U 17039E 26121.15003312 .00000112 00000+0 32882-4 0 9998 2 42807 86.4012 13.2934 0002162 86.2000 273.9443 14.34218491463207 IRIDIUM 117 1 42808U 17039F 26121.16906220 .00000204 00000+0 65752-4 0 9994 2 42808 86.4009 13.2435 0002307 86.3880 273.7580 14.34217883463235 IRIDIUM 126 1 42809U 17039G 26121.12466405 -.00000003 00000+0 -80929-5 0 9990 2 42809 86.4007 13.3122 0002111 89.0338 271.1100 14.34217483463202 IRIDIUM 124 1 42810U 17039H 26121.25410564 .00000125 00000+0 31161-4 0 9997 2 42810 86.4454 309.9975 0002222 89.3570 270.7886 14.43282235468347 IRIDIUM 128 1 42811U 17039J 26121.25493961 .00000066 00000+0 16538-4 0 9995 2 42811 86.3991 44.7628 0002380 80.0816 280.0649 14.34217656463259 IRIDIUM 121 1 42812U 17039K 26121.07393382 .00000255 00000+0 83910-4 0 9990 2 42812 86.4014 13.3610 0002184 82.3413 277.8031 14.34221717463072 IRIDIUM 133 1 42955U 17061A 26121.28665236 -.00000004 00000+0 -83409-5 0 9994 2 42955 86.3991 44.8664 0002163 84.6795 275.4648 14.34217407448056 IRIDIUM 100 1 42956U 17061B 26121.28030970 .00000028 00000+0 28667-5 0 9995 2 42956 86.3992 44.7886 0002259 84.0643 276.0810 14.34217353448053 IRIDIUM 122 1 42957U 17061C 26121.24859683 -.00000010 00000+0 -10700-4 0 9993 2 42957 86.3988 44.8020 0002170 86.5354 273.6090 14.34217388448059 IRIDIUM 129 1 42958U 17061D 26121.27396650 -.00000028 00000+0 -16943-4 0 9991 2 42958 86.3989 44.8580 0001884 89.3366 270.8046 14.34217272448071 IRIDIUM 119 1 42959U 17061E 26121.24225412 .00000029 00000+0 32765-5 0 9996 2 42959 86.3994 44.8667 0002232 88.3212 271.8239 14.34217665448083 IRIDIUM 107 1 42960U 17061F 26121.26128231 -.00000006 00000+0 -91721-5 0 9995 2 42960 86.3989 44.8799 0002371 86.1467 274.0000 14.34217466448098 IRIDIUM 132 1 42961U 17061G 26121.26762441 .00000030 00000+0 36120-5 0 9990 2 42961 86.3989 44.8570 0002164 84.8376 275.3066 14.34217677448090 IRIDIUM 136 1 42962U 17061H 26121.22956888 .00000017 00000+0 -10394-5 0 9998 2 42962 86.3989 44.8793 0002181 86.7698 273.3747 14.34217626448105 IRIDIUM 139 1 42963U 17061J 26121.23591159 -.00000004 00000+0 -84174-5 0 9990 2 42963 86.3990 44.9377 0002205 82.6009 277.5437 14.34217411448110 IRIDIUM 125 1 42964U 17061K 26121.29299514 .00000024 00000+0 16303-5 0 9996 2 42964 86.3997 44.9742 0002504 95.8273 264.3208 14.34217692448138 IRIDIUM 135 1 43070U 17083A 26121.12758336 -.00000028 00000+0 -17125-4 0 9991 2 43070 86.3978 341.6962 0002049 86.2882 273.8548 14.34217242437402 IRIDIUM 138 1 43071U 17083B 26121.15295318 -.00000001 00000+0 -72668-5 0 9996 2 43071 86.3989 341.3740 0001984 95.8152 264.3270 14.34217518437390 IRIDIUM 116 1 43072U 17083C 26121.12126110 .00000304 00000+0 10138-3 0 9993 2 43072 86.3978 341.6859 0002300 79.0722 281.0732 14.34213154437428 IRIDIUM 130 1 43073U 17083D 26121.08952795 .00000012 00000+0 -29415-5 0 9992 2 43073 86.3984 341.9692 0002274 84.0786 276.0669 14.34217550437360 IRIDIUM 151 1 43074U 17083E 26121.13392535 .00000033 00000+0 47283-5 0 9994 2 43074 86.3977 341.7368 0002049 84.4652 275.6777 14.34217781437391 IRIDIUM 134 1 43075U 17083F 26121.10221276 .00000023 00000+0 11376-5 0 9998 2 43075 86.3980 341.7575 0002142 86.1665 273.9776 14.34217617437357 IRIDIUM 137 1 43076U 17083G 26121.11489754 -.00000028 00000+0 -16889-4 0 9997 2 43076 86.3979 341.8439 0001856 72.1459 287.9939 14.34217164437424 IRIDIUM 141 1 43077U 17083H 26121.10855496 .00000230 00000+0 75122-4 0 9995 2 43077 86.3979 341.6804 0002096 88.3010 271.8426 14.34217003437423 IRIDIUM 153 1 43078U 17083J 26121.27003921 -.00000003 00000+0 -80292-5 0 9997 2 43078 86.3932 310.1008 0002096 95.6768 264.4667 14.34217479438558 IRIDIUM 131 1 43079U 17083K 26121.16563836 .00000048 00000+0 10176-4 0 9992 2 43079 86.3985 341.8393 0002075 87.2630 272.8804 14.34217823437364 IRIDIUM 144 1 43249U 18030A 26121.27638480 .00000078 00000+0 20647-4 0 9991 2 43249 86.3930 310.0285 0002194 85.9718 274.1729 14.34217978423418 IRIDIUM 149 1 43250U 18030B 26121.28272704 .00000072 00000+0 18541-4 0 9991 2 43250 86.3929 309.9934 0002083 91.2882 268.8553 14.34218010423430 IRIDIUM 157 1 43251U 18030C 26121.23198337 .00000038 00000+0 64113-5 0 9995 2 43251 86.3929 310.0666 0002143 89.2925 270.8516 14.34218061423403 IRIDIUM 140 1 43252U 18030D 26121.25101318 .00000084 00000+0 22820-4 0 9990 2 43252 86.3932 310.0715 0002227 89.0183 271.1268 14.34218290423468 IRIDIUM 145 1 43253U 18030E 26120.95925234 .00000049 00000+0 10334-4 0 9996 2 43253 86.3933 310.1660 0002285 81.6992 278.4463 14.34218088423350 IRIDIUM 146 1 43254U 18030F 26121.21929820 .00000043 00000+0 84650-5 0 9999 2 43254 86.3930 310.0693 0002195 86.7578 273.3869 14.34218100423404 IRIDIUM 148 1 43255U 18030G 26121.25737197 .00000148 00000+0 45852-4 0 9994 2 43255 86.3933 310.0959 0002052 88.0481 272.0950 14.34218445423446 IRIDIUM 142 1 43256U 18030H 26121.22566014 .00000072 00000+0 18815-4 0 9995 2 43256 86.3929 309.9999 0002252 84.4389 275.7063 14.34217970423405 IRIDIUM 150 1 43257U 18030J 26121.26369622 .00000029 00000+0 34335-5 0 9994 2 43257 86.3934 310.0989 0002162 88.4984 271.6459 14.34217810423439 IRIDIUM 143 1 43258U 18030K 26121.24466967 -.00000013 00000+0 -11765-4 0 9999 2 43258 86.3935 310.1974 0002131 86.2264 273.9176 14.34217252423362 IRIDIUM 161 1 43478U 18047C 26121.02402323 .00000034 00000+0 42397-5 0 9990 2 43478 86.4449 108.1942 0002084 92.1619 267.9820 14.43278063418331 IRIDIUM 152 1 43479U 18047D 26121.21738684 -.00000009 00000+0 -10356-4 0 9997 2 43479 86.3926 107.9741 0002126 91.6703 268.4736 14.34217440415757 IRIDIUM 147 1 43480U 18047E 26121.22372917 .00000015 00000+0 -17124-5 0 9990 2 43480 86.3928 107.9759 0002194 85.9890 274.1557 14.34217603415754 IRIDIUM 110 1 43481U 18047F 26121.23007140 .00000037 00000+0 59885-5 0 9998 2 43481 86.3927 108.0637 0002004 96.4629 263.6795 14.34217603415744 IRIDIUM 162 1 43482U 18047G 26121.22571104 .00000124 00000+0 30828-4 0 9996 2 43482 86.4449 108.0014 0002431 91.2265 268.9215 14.43278998418356 IRIDIUM 160 1 43569U 18061A 26120.82706338 .00000137 00000+0 41939-4 0 9991 2 43569 86.3948 76.5961 0002095 86.3417 273.8018 14.34218825406586 IRIDIUM 166 1 43570U 18061B 26121.27106107 .00000280 00000+0 92822-4 0 9997 2 43570 86.3947 76.3614 0002331 83.2313 276.9148 14.34220619406676 IRIDIUM 158 1 43571U 18061C 26120.89049205 -.00000007 00000+0 -95303-5 0 9997 2 43571 86.3945 76.5308 0002213 88.7725 271.3724 14.34217369406580 IRIDIUM 165 1 43572U 18061D 26121.26470512 .00000004 00000+0 -55873-5 0 9993 2 43572 86.3946 76.4197 0002181 82.6138 277.5305 14.34217354406668 IRIDIUM 155 1 43573U 18061E 26121.29641848 -.00000008 00000+0 -10067-4 0 9999 2 43573 86.3944 76.2777 0002266 86.4390 273.7065 14.34217217406631 IRIDIUM 154 1 43574U 18061F 26121.27738956 .00000036 00000+0 56695-5 0 9992 2 43574 86.3949 76.4168 0002267 82.1912 277.9541 14.34217773406684 IRIDIUM 163 1 43575U 18061G 26121.25836059 .00000182 00000+0 57938-4 0 9996 2 43575 86.3945 76.3415 0002238 88.9341 271.2112 14.34217410406659 IRIDIUM 156 1 43576U 18061H 26121.30276099 .00000008 00000+0 -41744-5 0 9992 2 43576 86.3945 76.3301 0002422 85.4060 274.7412 14.34217514406655 IRIDIUM 164 1 43577U 18061J 26121.28373210 .00000124 00000+0 37083-4 0 9991 2 43577 86.3947 76.3777 0002215 81.6844 278.4603 14.34218059406695 IRIDIUM 159 1 43578U 18061K 26121.25202022 -.00000037 00000+0 -20453-4 0 9999 2 43578 86.3943 76.3290 0002040 87.6153 272.5277 14.34217002406652 IRIDIUM 180 1 43922U 19002A 26121.25151514 .00000145 00000+0 44683-4 0 9996 2 43922 86.4014 13.2135 0002089 86.5753 273.5682 14.34217609382264 IRIDIUM 176 1 43923U 19002B 26121.12533636 .00000632 00000+0 96345-4 0 9995 2 43923 86.6137 13.2167 0002381 79.4358 280.7127 14.72246399392327 IRIDIUM 168 1 43924U 19002C 26121.10563717 .00000259 00000+0 85569-4 0 9998 2 43924 86.4013 13.3503 0002144 84.8555 275.2886 14.34222333382229 IRIDIUM 173 1 43925U 19002D 26121.16271955 -.00000018 00000+0 -13480-4 0 9993 2 43925 86.4006 13.2171 0002128 87.6505 272.4935 14.34217390382210 IRIDIUM 169 1 43926U 19002E 26120.74564999 .00000304 00000+0 92720-4 0 9990 2 43926 86.4247 45.0182 0002854 89.8152 270.3373 14.38610820383405 IRIDIUM 172 1 43927U 19002F 26121.22614077 .00000151 00000+0 46880-4 0 9994 2 43927 86.4013 13.1984 0002115 85.7940 274.3497 14.34216715382235 IRIDIUM 175 1 43928U 19002G 26121.27994199 .00000117 00000+0 28502-4 0 9999 2 43928 86.4485 310.1426 0004453 46.7948 313.3625 14.43591256392214 IRIDIUM 171 1 43929U 19002H 26121.13734936 -.00000018 00000+0 -13468-4 0 9993 2 43929 86.4016 13.5364 0002188 81.9820 278.1624 14.34217443382212 IRIDIUM 170 1 43930U 19002J 26121.13150631 .00000614 00000+0 93433-4 0 9999 2 43930 86.6132 13.2167 0002210 85.6431 274.5038 14.72259293392332 IRIDIUM 167 1 43931U 19002K 26121.13100691 .00000022 00000+0 87345-6 0 9991 2 43931 86.4006 13.2601 0002345 80.2483 279.8978 14.34217657382214 IRIDIUM 181 1 56726U 23068S 26120.89314058 .00000209 00000+0 55989-4 0 9994 2 56726 86.4483 76.5566 0002101 81.9026 278.2414 14.43309165155618 IRIDIUM 177 1 56727U 23068T 26121.13672152 .00001175 00000+0 15107-3 0 9995 2 56727 86.1988 351.1412 0002342 92.9771 267.1718 14.80245660159409 IRIDIUM 174 1 56728U 23068U 26121.11915651 .00000853 00000+0 13144-3 0 9999 2 56728 86.6141 13.3642 0002356 90.3454 269.8034 14.72252628159091 IRIDIUM 178 1 56729U 23068V 26121.26096590 .00001392 00000+0 17979-3 0 9997 2 56729 86.6562 44.9620 0002351 80.2663 279.8824 14.80234694159427 IRIDIUM 179 1 56730U 23068W 26120.30917298 .00000590 00000+0 74200-4 0 9990 2 56730 86.6790 54.1978 0002778 81.1931 278.9605 14.80228304159284